| time (UTC) | temp C | wind direction | speed KPH | gust KPH | rain 1hr cm | rain 24hr cm | rain mn cm | humidity % | barometer mb |
| 20260507123600 | 17 | 64 | 1.6 | 8.0 | 0.00 | 0.56 | 0.18 | 65 | 1011.5 |
| 20260507123324 | 17 | 287 | 0.0 | 8.0 | 0.00 | 0.56 | 0.18 | 61 | 1011.6 |
| 20260507122819 | 18 | 258 | 0.0 | 8.0 | 0.00 | 0.56 | 0.18 | 59 | 1011.7 |
| 20260507122320 | 18 | 176 | 1.6 | 11.3 | 0.00 | 0.56 | 0.18 | 57 | 1011.6 |
| 20260507122311 | 18 | 156 | 4.8 | 11.3 | 0.00 | 0.56 | 0.18 | 52 | 1011.6 |
| 20260507121502 | 19 | 156 | 8.0 | 12.9 | 0.00 | 0.56 | 0.18 | 52 | 1011.8 |
| 20260507121349 | 18 | 198 | 0.0 | 12.9 | 0.00 | 0.56 | 0.18 | 54 | 1011.8 |
| 20260507120644 | 18 | 150 | 4.8 | 12.9 | 0.00 | 0.56 | 0.18 | 52 | 1011.8 |
| 20260507115600 | 18 | 200 | 4.8 | 11.3 | 0.00 | 0.56 | 0.18 | 58 | 1011.7 |
| 20260507115552 | 18 | 188 | 3.2 | 11.3 | 0.00 | 0.56 | 0.18 | 59 | 1011.8 |
| 20260507114558 | 19 | 181 | 6.4 | 12.9 | 0.00 | 0.56 | 0.18 | 61 | 1011.7 |
| 20260507114320 | 18 | 146 | 9.7 | 12.9 | 0.00 | 0.56 | 0.18 | 59 | 1011.7 |
| 20260507113557 | 18 | 176 | 9.7 | 11.3 | 0.00 | 0.56 | 0.18 | 59 | 1011.9 |
| 20260507113055 | 18 | 189 | 6.4 | 12.9 | 0.00 | 0.56 | 0.18 | 60 | 1011.9 |
| 20260507112557 | 18 | 200 | 6.4 | 12.9 | 0.00 | 0.56 | 0.18 | 58 | 1011.9 |
| 20260507112055 | 18 | 146 | 3.2 | 11.3 | 0.00 | 0.56 | 0.18 | 56 | 1012.0 |
| 20260507111557 | 18 | 173 | 4.8 | 12.9 | 0.00 | 0.56 | 0.18 | 56 | 1012.0 |
| 20260507111055 | 18 | 153 | 11.3 | 12.9 | 0.00 | 0.56 | 0.18 | 60 | 1012.0 |
| 20260507110600 | 18 | 155 | 6.4 | 12.9 | 0.00 | 0.56 | 0.18 | 62 | 1012.0 |
| 20260507110055 | 18 | 139 | 3.2 | 14.5 | 0.00 | 0.56 | 0.18 | 62 | 1012.0 |
| 20260507105826 | 17 | 112 | 1.6 | 14.5 | 0.00 | 0.56 | 0.18 | 62 | 1012.5 |
| 20260507105056 | 18 | 168 | 6.4 | 12.9 | 0.00 | 0.56 | 0.18 | 61 | 1012.2 |
| 20260507104821 | 18 | 174 | 4.8 | 14.5 | 0.00 | 0.56 | 0.18 | 62 | 1012.3 |
| 20260507104056 | 18 | 159 | 4.8 | 14.5 | 0.00 | 0.56 | 0.18 | 63 | 1012.4 |
| 20260507103826 | 18 | 138 | 11.3 | 16.1 | 0.00 | 0.56 | 0.18 | 61 | 1012.4 |
| 20260507103541 | 17 | 160 | 8.0 | 16.1 | 0.00 | 0.56 | 0.18 | 63 | 1012.3 |
| 20260507102805 | 17 | 168 | 6.4 | 9.7 | 0.00 | 0.56 | 0.18 | 64 | 1012.3 |
| 20260507102558 | 17 | 222 | 4.8 | 11.3 | 0.00 | 0.56 | 0.18 | 65 | 1012.6 |
| 20260507101823 | 17 | 87 | 4.8 | 12.9 | 0.00 | 0.56 | 0.18 | 64 | 1012.7 |
| 20260507101539 | 17 | 197 | 6.4 | 12.9 | 0.00 | 0.56 | 0.18 | 64 | 1012.5 |
| 20260507100556 | 17 | 180 | 6.4 | 12.9 | 0.00 | 0.56 | 0.18 | 66 | 1012.6 |
| 20260507100055 | 17 | 202 | 6.4 | 14.5 | 0.00 | 0.56 | 0.18 | 69 | 1012.6 |
| 20260507095824 | 17 | 189 | 6.4 | 14.5 | 0.00 | 0.56 | 0.18 | 69 | 1012.5 |
| 20260507095313 | 17 | 137 | 3.2 | 12.9 | 0.00 | 0.56 | 0.18 | 69 | 1013.0 |
| 20260507094828 | 17 | 219 | 3.2 | 12.9 | 0.00 | 0.56 | 0.18 | 69 | 1012.7 |
| 20260507094055 | 16 | 148 | 9.7 | 12.9 | 0.00 | 0.56 | 0.18 | 66 | 1012.4 |
| 20260507093557 | 16 | 163 | 3.2 | 12.9 | 0.00 | 0.56 | 0.18 | 68 | 1012.4 |
| 20260507093322 | 16 | 161 | 8.0 | 14.5 | 0.00 | 0.56 | 0.18 | 70 | 1012.6 |
| 20260507093048 | 16 | 159 | 12.9 | 14.5 | 0.00 | 0.56 | 0.18 | 72 | 1012.5 |
| 20260507092058 | 17 | 96 | 1.6 | 9.7 | 0.00 | 0.56 | 0.18 | 70 | 1012.6 |
| 20260507091814 | 17 | 61 | 3.2 | 9.7 | 0.00 | 0.56 | 0.18 | 71 | 1012.5 |
| 20260507091056 | 15 | 89 | 3.2 | 8.0 | 0.00 | 0.56 | 0.18 | 73 | 1012.6 |
| 20260507090602 | 16 | 50 | 6.4 | 16.1 | 0.00 | 0.56 | 0.18 | 70 | 1012.5 |
| 20260507090521 | 16 | 59 | 8.0 | 9.7 | 0.00 | 0.56 | 0.18 | 68 | 1012.6 |
| 20260507090152 | 16 | 188 | 6.4 | 16.1 | 0.00 | 0.56 | 0.18 | 74 | 1012.5 |
| 20260507085055 | 16 | 109 | 3.2 | 11.3 | 0.00 | 0.56 | 0.18 | 69 | 1012.3 |
| 20260507084825 | 15 | 80 | 6.4 | 11.3 | 0.00 | 0.56 | 0.18 | 67 | 1012.3 |
| 20260507084055 | 16 | 69 | 6.4 | 12.9 | 0.00 | 0.56 | 0.18 | 69 | 1012.3 |
| 20260507083820 | 16 | 82 | 6.4 | 14.5 | 0.00 | 0.56 | 0.18 | 69 | 1012.3 |
| 20260507083313 | 16 | 106 | 6.4 | 16.1 | 0.00 | 0.56 | 0.18 | 70 | 1012.2 |
| 20260507082557 | 16 | 65 | 9.7 | 16.1 | 0.00 | 0.56 | 0.18 | 71 | 1012.2 |
| 20260507082055 | 15 | 76 | 11.3 | 16.1 | 0.00 | 0.56 | 0.18 | 71 | 1012.2 |
| 20260507081557 | 16 | 258 | 3.2 | 12.9 | 0.00 | 0.56 | 0.18 | 72 | 1012.2 |
| 20260507081315 | 17 | 158 | 3.2 | 11.3 | 0.00 | 0.56 | 0.18 | 67 | 1012.1 |
| 20260507080557 | 16 | 286 | 4.8 | 11.3 | 0.00 | 0.56 | 0.18 | 71 | 1011.9 |
| 20260507080315 | 17 | 119 | 0.0 | 8.0 | 0.00 | 0.56 | 0.18 | 69 | 1011.9 |
| 20260507075816 | 16 | 218 | 3.2 | 11.3 | 0.00 | 0.56 | 0.18 | 73 | 1012.0 |
| 20260507075100 | 16 | 242 | 4.8 | 12.9 | 0.00 | 0.56 | 0.18 | 75 | 1012.0 |
| 20260507074558 | 15 | 80 | 4.8 | 12.9 | 0.00 | 0.56 | 0.18 | 74 | 1011.9 |
| 20260507074308 | 15 | 92 | 8.0 | 12.9 | 0.00 | 0.56 | 0.18 | 73 | 1012.0 |
| 20260507074056 | 15 | 87 | 6.4 | 12.9 | 0.00 | 0.56 | 0.18 | 74 | 1012.0 |
| 20260507073315 | 16 | 77 | 3.2 | 6.4 | 0.00 | 0.56 | 0.18 | 74 | 1012.1 |
| 20260507072559 | 15 | 241 | 3.2 | 9.7 | 0.00 | 0.56 | 0.18 | 77 | 1012.2 |
| 20260507072322 | 15 | 101 | 3.2 | 9.7 | 0.00 | 0.56 | 0.18 | 76 | 1012.1 |
| 20260507071605 | 15 | 177 | 4.8 | 12.9 | 0.00 | 0.56 | 0.18 | 78 | 1011.9 |
| 20260507071058 | 15 | 61 | 1.6 | 12.9 | 0.00 | 0.56 | 0.18 | 78 | 1011.9 |
| 20260507070557 | 14 | 196 | 3.2 | 9.7 | 0.00 | 0.56 | 0.18 | 81 | 1012.1 |
| 20260507070056 | 13 | 223 | 4.8 | 9.7 | 0.00 | 0.56 | 0.18 | 84 | 1012.2 |
| 20260507065610 | 13 | 169 | 4.8 | 9.7 | 0.00 | 0.56 | 0.18 | 84 | 1012.0 |
| 20260507065058 | 13 | 180 | 6.4 | 8.0 | 0.00 | 0.56 | 0.18 | 85 | 1011.7 |
| 20260507064821 | 13 | 158 | 4.8 | 8.0 | 0.00 | 0.56 | 0.18 | 86 | 1011.6 |
| 20260507064055 | 13 | 209 | 3.2 | 8.0 | 0.00 | 0.56 | 0.18 | 87 | 1011.7 |
| 20260507063909 | 12 | 176 | 6.4 | 8.0 | 0.00 | 0.56 | 0.18 | 88 | 1011.6 |
| 20260507063804 | 12 | 210 | 3.2 | 8.0 | 0.00 | 0.56 | 0.18 | 89 | 1011.7 |
| 20260507062556 | 11 | 265 | 3.2 | 8.0 | 0.00 | 0.56 | 0.18 | 90 | 1011.8 |
| 20260507062546 | 11 | 305 | 4.8 | 8.0 | 0.00 | 0.56 | 0.18 | 90 | 1011.5 |
| 20260507061557 | 11 | 227 | 3.2 | 6.4 | 0.00 | 0.56 | 0.18 | 90 | 1011.6 |
| 20260507061325 | 11 | 240 | 3.2 | 8.0 | 0.00 | 0.56 | 0.18 | 90 | 1011.6 |
| 20260507060823 | 12 | 226 | 3.2 | 8.0 | 0.00 | 0.56 | 0.18 | 90 | 1011.2 |
| 20260507060055 | 11 | 197 | 4.8 | 9.7 | 0.00 | 0.56 | 0.18 | 90 | 1011.6 |
| 20260507055821 | 12 | 310 | 4.8 | 9.7 | 0.00 | 0.56 | 0.18 | 89 | 1011.1 |
| 20260507055055 | 12 | 281 | 3.2 | 9.7 | 0.00 | 0.56 | 0.18 | 89 | 1011.5 |
| 20260507054558 | 12 | 195 | 6.4 | 9.7 | 0.00 | 0.56 | 0.18 | 90 | 1011.6 |
| 20260507054313 | 11 | 184 | 4.8 | 8.0 | 0.00 | 0.56 | 0.18 | 93 | 1011.5 |
| 20260507053559 | 11 | 237 | 3.2 | 8.0 | 0.00 | 0.56 | 0.18 | 94 | 1011.4 |
| 20260507053327 | 11 | 241 | 3.2 | 6.4 | 0.00 | 0.56 | 0.18 | 94 | 1011.2 |
| 20260507052557 | 11 | 208 | 4.8 | 8.0 | 0.00 | 0.56 | 0.18 | 92 | 1011.1 |
| 20260507052055 | 12 | 143 | 3.2 | 8.0 | 0.00 | 0.56 | 0.18 | 91 | 1011.5 |
| 20260507052046 | 11 | 89 | 1.6 | 8.0 | 0.00 | 0.56 | 0.18 | 92 | 1011.1 |
| 20260507051055 | 11 | 209 | 1.6 | 8.0 | 0.00 | 0.56 | 0.18 | 94 | 1011.1 |
| 20260507050806 | 10 | 287 | 1.6 | 6.4 | 0.00 | 0.56 | 0.18 | 96 | 1010.8 |
| 20260507050655 | 11 | 207 | 3.2 | 8.0 | 0.00 | 0.56 | 0.18 | 94 | 1010.8 |
| 20260507045557 | 10 | 236 | 3.2 | 8.0 | 0.00 | 0.56 | 0.18 | 96 | 1010.8 |
| 20260507045531 | 10 | 320 | 3.2 | 8.0 | 0.00 | 0.56 | 0.18 | 96 | 1011.0 |
| 20260507045046 | 10 | 46 | 1.6 | 8.0 | 0.00 | 0.56 | 0.18 | 96 | 1010.9 |
| 20260507044319 | 10 | 224 | 1.6 | 6.4 | 0.00 | 0.56 | 0.18 | 97 | 1010.6 |
| 20260507043556 | 10 | 242 | 3.2 | 9.7 | 0.00 | 0.56 | 0.18 | 97 | 1010.6 |
| 20260507043055 | 10 | 224 | 4.8 | 9.7 | 0.00 | 0.56 | 0.18 | 97 | 1010.7 |
| 20260507042557 | 10 | 292 | 0.0 | 8.0 | 0.00 | 0.56 | 0.18 | 97 | 1010.4 |
| 20260507042055 | 10 | 207 | 1.6 | 6.4 | 0.00 | 0.56 | 0.18 | 97 | 1010.5 |
| 20260507041821 | 10 | 292 | 3.2 | 6.4 | 0.00 | 0.56 | 0.18 | 97 | 1010.7 |
| 20260507041325 | 10 | 190 | 3.2 | 6.4 | 0.00 | 0.56 | 0.18 | 97 | 1010.6 |
| 20260507040821 | 10 | 234 | 3.2 | 8.0 | 0.00 | 0.56 | 0.18 | 96 | 1010.6 |
| 20260507040055 | 10 | 335 | 3.2 | 8.0 | 0.00 | 0.56 | 0.18 | 96 | 1010.5 |
| 20260507035557 | 10 | 223 | 3.2 | 6.4 | 0.00 | 0.56 | 0.18 | 96 | 1010.5 |
| 20260507035333 | 10 | 328 | 3.2 | 6.4 | 0.00 | 0.56 | 0.18 | 97 | 1010.4 |
| 20260507034558 | 10 | 269 | 3.2 | 6.4 | 0.00 | 0.56 | 0.18 | 97 | 1010.8 |
| 20260507034058 | 10 | 287 | 3.2 | 9.7 | 0.00 | 0.56 | 0.18 | 97 | 1010.3 |
| 20260507033821 | 10 | 332 | 3.2 | 9.7 | 0.00 | 0.56 | 0.18 | 97 | 1010.6 |
| 20260507033056 | 10 | 206 | 3.2 | 8.0 | 0.00 | 0.56 | 0.18 | 96 | 1010.6 |
| 20260507032818 | 10 | 277 | 1.6 | 8.0 | 0.00 | 0.56 | 0.18 | 96 | 1010.4 |
| 20260507032055 | 10 | 137 | 3.2 | 9.7 | 0.00 | 0.56 | 0.18 | 96 | 1010.5 |
| 20260507031820 | 10 | 223 | 3.2 | 12.9 | 0.00 | 0.56 | 0.18 | 96 | 1010.6 |
| 20260507031056 | 10 | 81 | 3.2 | 12.9 | 0.00 | 0.56 | 0.18 | 96 | 1010.5 |
| 20260507031023 | 10 | 234 | 3.2 | 8.0 | 0.03 | 0.56 | 0.18 | 97 | 1010.4 |
| 20260507030822 | 10 | 220 | 3.2 | 9.7 | 0.00 | 0.56 | 0.18 | 97 | 1010.4 |
| 20260507030037 | 10 | 264 | 3.2 | 8.0 | 0.05 | 0.56 | 0.18 | 97 | 1010.4 |
| 20260507025059 | 10 | 192 | 3.2 | 9.7 | 0.05 | 0.56 | 0.18 | 97 | 1010.5 |
| 20260507024559 | 10 | 274 | 3.2 | 9.7 | 0.05 | 0.56 | 0.18 | 97 | 1010.4 |
| 20260507024055 | 10 | 196 | 4.8 | 8.0 | 0.05 | 0.56 | 0.18 | 97 | 1010.4 |
| 20260507023816 | 10 | 282 | 1.6 | 8.0 | 0.05 | 0.56 | 0.18 | 98 | 1010.3 |
| 20260507023055 | 10 | 197 | 4.8 | 8.0 | 0.05 | 0.56 | 0.18 | 98 | 1010.2 |
| 20260507022819 | 10 | 206 | 3.2 | 6.4 | 0.05 | 0.56 | 0.18 | 98 | 1010.3 |
| 20260507022316 | 10 | 210 | 1.6 | 8.0 | 0.05 | 0.56 | 0.18 | 97 | 1010.4 |
| 20260507022046 | 10 | 255 | 3.2 | 8.0 | 0.05 | 0.56 | 0.18 | 97 | 1010.2 |
| 20260507021804 | 10 | 210 | 1.6 | 8.0 | 0.05 | 0.56 | 0.18 | 97 | 1010.3 |
| 20260507021301 | 11 | 284 | 4.8 | 8.0 | 0.05 | 0.56 | 0.18 | 97 | 1010.2 |
| 20260507020320 | 11 | 214 | 3.2 | 6.4 | 0.03 | 0.53 | 0.15 | 96 | 1010.0 |
| 20260507015559 | 11 | 248 | 3.2 | 6.4 | 0.00 | 0.51 | 0.15 | 96 | 1010.5 |
| 20260507015314 | 11 | 262 | 3.2 | 8.0 | 0.00 | 0.51 | 0.15 | 96 | 1010.5 |
| 20260507014602 | 11 | 200 | 4.8 | 8.0 | 0.00 | 0.51 | 0.15 | 96 | 1010.4 |
| 20260507014056 | 11 | 244 | 6.4 | 8.0 | 0.00 | 0.51 | 0.15 | 96 | 1010.5 |
| 20260507013821 | 11 | 298 | 3.2 | 8.0 | 0.00 | 0.51 | 0.15 | 97 | 1010.3 |
| 20260507013315 | 11 | 357 | 3.2 | 8.0 | 0.00 | 0.51 | 0.15 | 97 | 1010.2 |
| 20260507012556 | 10 | 221 | 3.2 | 6.4 | 0.00 | 0.51 | 0.15 | 98 | 1010.3 |
| 20260507012102 | 10 | 227 | 4.8 | 6.4 | 0.00 | 0.51 | 0.15 | 98 | 1010.1 |
| 20260507011556 | 10 | 208 | 3.2 | 6.4 | 0.00 | 0.51 | 0.15 | 98 | 1010.3 |
| 20260507011543 | 11 | 200 | 3.2 | 6.4 | 0.00 | 0.51 | 0.15 | 98 | 1010.5 |
| 20260507010815 | 10 | 215 | 4.8 | 8.0 | 0.00 | 0.51 | 0.15 | 98 | 1010.2 |
| 20260507010054 | 11 | 190 | 3.2 | 8.0 | 0.00 | 0.51 | 0.15 | 98 | 1010.0 |
| 20260507005557 | 11 | 213 | 6.4 | 8.0 | 0.00 | 0.51 | 0.15 | 97 | 1010.2 |
| 20260507005054 | 11 | 212 | 1.6 | 8.0 | 0.00 | 0.51 | 0.15 | 97 | 1010.1 |
| 20260507004557 | 11 | 188 | 3.2 | 8.0 | 0.00 | 0.51 | 0.15 | 98 | 1010.4 |
| 20260507004314 | 11 | 187 | 3.2 | 8.0 | 0.00 | 0.51 | 0.15 | 98 | 1010.0 |
| 20260507003813 | 11 | 254 | 3.2 | 8.0 | 0.00 | 0.51 | 0.15 | 98 | 1010.1 |
| 20260507003313 | 11 | 190 | 3.2 | 6.4 | 0.03 | 0.51 | 0.15 | 98 | 1010.0 |
| 20260507002555 | 11 | 267 | 3.2 | 6.4 | 0.03 | 0.51 | 0.15 | 99 | 1010.2 |
| 20260507002315 | 11 | 194 | 6.4 | 6.4 | 0.05 | 0.51 | 0.15 | 99 | 1010.4 |
| 20260507002048 | 11 | 231 | 0.0 | 6.4 | 0.05 | 0.51 | 0.15 | 99 | 1010.2 |
| 20260507001057 | 11 | 233 | 1.6 | 4.8 | 0.05 | 0.51 | 0.15 | 98 | 1010.3 |
| 20260507000555 | 11 | 204 | 3.2 | 6.4 | 0.05 | 0.51 | 0.15 | 98 | 1010.2 |
| 20260507000054 | 11 | 237 | 1.6 | 6.4 | 0.05 | 0.51 | 0.15 | 98 | 1010.4 |
| 20260506235556 | 11 | 265 | 1.6 | 8.0 | 0.05 | 0.51 | 0.15 | 98 | 1010.2 |
| 20260506235054 | 11 | 344 | 3.2 | 8.0 | 0.05 | 0.51 | 0.15 | 99 | 1010.1 |
| 20260506234818 | 11 | 211 | 3.2 | 6.4 | 0.08 | 0.51 | 0.15 | 99 | 1010.1 |
| 20260506234055 | 11 | 226 | 3.2 | 6.4 | 0.10 | 0.51 | 0.15 | 98 | 1010.0 |
| 20260506234038 | 11 | 210 | 3.2 | 6.4 | 0.10 | 0.51 | 0.15 | 98 | 1010.1 |
| 20260506233057 | 11 | 237 | 3.2 | 4.8 | 0.10 | 0.51 | 0.13 | 98 | 1010.3 |
| 20260506232555 | 11 | 292 | 3.2 | 6.4 | 0.10 | 0.51 | 0.13 | 98 | 1010.1 |
| 20260506232510 | 11 | 273 | 0.0 | 8.0 | 0.10 | 0.48 | 0.10 | 99 | 1010.1 |
| 20260506232054 | 11 | 219 | 3.2 | 6.4 | 0.08 | 0.48 | 0.10 | 98 | 1010.3 |
| 20260506232048 | 11 | 265 | 3.2 | 6.4 | 0.08 | 0.48 | 0.10 | 99 | 1010.3 |
| 20260506230559 | 11 | 235 | 0.0 | 8.0 | 0.10 | 0.48 | 0.10 | 99 | 1010.0 |
| 20260506230054 | 11 | 208 | 3.2 | 6.4 | 0.10 | 0.48 | 0.10 | 98 | 1009.9 |
| 20260506225556 | 11 | 158 | 0.0 | 6.4 | 0.10 | 0.48 | 0.10 | 98 | 1010.1 |
| 20260506225314 | 11 | 307 | 1.6 | 6.4 | 0.13 | 0.46 | 0.10 | 98 | 1010.2 |
| 20260506224558 | 11 | 224 | 0.0 | 6.4 | 0.15 | 0.43 | 0.05 | 98 | 1010.1 |
| 20260506224054 | 11 | 201 | 3.2 | 6.4 | 0.15 | 0.43 | 0.05 | 98 | 1010.3 |
| 20260506223559 | 11 | 309 | 1.6 | 6.4 | 0.20 | 0.43 | 0.05 | 98 | 1010.0 |
| 20260506223054 | 11 | 299 | 0.0 | 6.4 | 0.20 | 0.41 | 0.03 | 98 | 1009.8 |
| 20260506223048 | 11 | 323 | 1.6 | 6.4 | 0.23 | 0.41 | 0.03 | 98 | 1009.9 |
| 20260506222054 | 11 | 202 | 0.0 | 4.8 | 0.23 | 0.41 | 0.03 | 98 | 1010.0 |
| 20260506221556 | 11 | 201 | 0.0 | 4.8 | 0.25 | 0.41 | 0.03 | 98 | 1010.1 |
| 20260506221315 | 11 | 210 | 3.2 | 3.2 | 0.23 | 0.38 | 0.00 | 98 | 1009.9 |
| 20260506220817 | 11 | 162 | 0.0 | 4.8 | 0.23 | 0.38 | 0.00 | 98 | 1010.1 |
| 20260506220055 | 11 | 284 | 3.2 | 4.8 | 0.23 | 0.38 | 0.00 | 98 | 1010.1 |
| 20260506215558 | 11 | 286 | 0.0 | 4.8 | 0.23 | 0.38 | 3.25 | 97 | 1010.0 |
| 20260506215054 | 11 | 332 | 0.0 | 6.4 | 0.20 | 0.33 | 3.20 | 97 | 1009.9 |
| 20260506214824 | 11 | 22 | 0.0 | 6.4 | 0.15 | 0.28 | 3.15 | 97 | 1010.0 |
| 20260506214053 | 11 | 321 | 3.2 | 6.4 | 0.13 | 0.25 | 3.12 | 97 | 1010.0 |
| 20260506213556 | 11 | 151 | 6.4 | 6.4 | 0.08 | 0.23 | 3.07 | 97 | 1010.0 |
| 20260506213057 | 11 | 166 | 0.0 | 8.0 | 0.10 | 0.20 | 3.05 | 97 | 1010.0 |
| 20260506212821 | 11 | 111 | 4.8 | 9.7 | 0.08 | 0.18 | 3.05 | 96 | 1009.9 |
| 20260506212317 | 11 | 163 | 1.6 | 9.7 | 0.05 | 0.15 | 3.02 | 96 | 1009.9 |
| 20260506211823 | 11 | 1 | 1.6 | 9.7 | 0.05 | 0.15 | 3.00 | 96 | 1009.9 |
| 20260506211055 | 11 | 264 | 3.2 | 9.7 | 0.05 | 0.15 | 3.00 | 97 | 1009.9 |
| 20260506210556 | 11 | 53 | 4.8 | 8.0 | 0.05 | 0.15 | 3.00 | 97 | 1009.8 |
| 20260506210054 | 11 | 88 | 1.6 | 6.4 | 0.05 | 0.15 | 3.00 | 97 | 1009.6 |
| 20260506205817 | 11 | 151 | 4.8 | 9.7 | 0.05 | 0.15 | 3.00 | 97 | 1009.8 |
| 20260506205542 | 11 | 13 | 0.0 | 9.7 | 0.05 | 0.15 | 3.00 | 97 | 1009.7 |
| 20260506204557 | 11 | 163 | 3.2 | 8.0 | 0.05 | 0.15 | 3.00 | 97 | 1009.7 |
| 20260506204054 | 11 | 6 | 0.0 | 6.4 | 0.05 | 0.15 | 3.00 | 97 | 1009.6 |
| 20260506203556 | 11 | 258 | 1.6 | 4.8 | 0.05 | 0.15 | 3.00 | 97 | 1009.6 |
| 20260506203549 | 11 | 266 | 3.2 | 3.2 | 0.00 | 0.10 | 2.97 | 97 | 1009.8 |
| 20260506203318 | 11 | 224 | 0.0 | 3.2 | 0.00 | 0.10 | 2.97 | 97 | 1009.7 |
| 20260506202054 | 11 | 243 | 0.0 | 4.8 | 0.00 | 0.10 | 2.97 | 96 | 1009.7 |
| 20260506201815 | 11 | 116 | 0.0 | 4.8 | 0.00 | 0.10 | 2.97 | 96 | 1009.7 |
| 20260506201547 | 11 | 171 | 3.2 | 6.4 | 0.00 | 0.10 | 2.97 | 96 | 1009.6 |
| 20260506200556 | 11 | 162 | 1.6 | 6.4 | 0.00 | 0.10 | 2.97 | 96 | 1009.5 |
| 20260506200055 | 11 | 290 | 4.8 | 6.4 | 0.00 | 0.10 | 2.97 | 95 | 1009.4 |
| 20260506195814 | 11 | 4 | 4.8 | 6.4 | 0.00 | 0.10 | 2.97 | 95 | 1009.0 |
| 20260506195535 | 11 | 324 | 3.2 | 8.0 | 0.00 | 0.10 | 2.97 | 94 | 1009.2 |
| 20260506194557 | 11 | 277 | 1.6 | 8.0 | 0.00 | 0.10 | 2.97 | 93 | 1009.0 |
| 20260506194053 | 12 | 15 | 1.6 | 6.4 | 0.00 | 0.10 | 2.97 | 93 | 1008.8 |
| 20260506193556 | 11 | 237 | 1.6 | 8.0 | 0.00 | 0.10 | 2.97 | 93 | 1008.8 |
| 20260506193549 | 11 | 107 | 3.2 | 8.0 | 0.00 | 0.10 | 2.97 | 93 | 1008.8 |
| 20260506193257 | 12 | 5 | 1.6 | 9.7 | 0.00 | 0.10 | 2.97 | 93 | 1008.7 |
| 20260506192053 | 12 | 22 | 6.4 | 9.7 | 0.00 | 0.10 | 2.97 | 93 | 1008.6 |
| 20260506191555 | 11 | 306 | 4.8 | 8.0 | 0.00 | 0.10 | 2.97 | 94 | 1008.5 |
| 20260506191053 | 11 | 203 | 3.2 | 8.0 | 0.00 | 0.10 | 2.97 | 95 | 1008.7 |
| 20260506190555 | 11 | 267 | 3.2 | 8.0 | 0.00 | 0.10 | 2.97 | 96 | 1008.6 |
| 20260506190053 | 11 | 177 | 0.0 | 6.4 | 0.00 | 0.10 | 2.97 | 97 | 1008.3 |
| 20260506185814 | 11 | 350 | 6.4 | 8.0 | 0.00 | 0.10 | 2.97 | 97 | 1008.2 |
| 20260506185319 | 11 | 201 | 0.0 | 8.0 | 0.03 | 0.10 | 2.97 | 97 | 1007.9 |
| 20260506184559 | 11 | 221 | 1.6 | 6.4 | 0.05 | 0.10 | 2.97 | 97 | 1007.9 |
| 20260506184317 | 11 | 300 | 1.6 | 4.8 | 0.10 | 0.10 | 2.97 | 97 | 1007.9 |
| 20260506183555 | 11 | 238 | 3.2 | 4.8 | 0.10 | 0.10 | 2.97 | 96 | 1007.9 |
| 20260506183053 | 11 | 137 | 0.0 | 9.7 | 0.10 | 0.10 | 2.97 | 96 | 1007.9 |
| 20260506182558 | 11 | 319 | 3.2 | 9.7 | 0.10 | 0.10 | 2.97 | 96 | 1007.6 |
| 20260506182053 | 11 | 267 | 4.8 | 8.0 | 0.10 | 0.10 | 2.97 | 96 | 1007.6 |
| 20260506182039 | 11 | 246 | 0.0 | 8.0 | 0.10 | 0.10 | 2.97 | 95 | 1007.6 |
| 20260506181053 | 11 | 255 | 8.0 | 8.0 | 0.10 | 0.10 | 2.97 | 93 | 1007.9 |
| 20260506181007 | 12 | 232 | 3.2 | 8.0 | 0.10 | 0.10 | 2.97 | 90 | 1006.9 |
| 20260506180901 | 12 | 185 | 3.2 | 4.8 | 0.10 | 0.10 | 2.97 | 92 | 1007.6 |
| 20260506180054 | 12 | 59 | 1.6 | 6.4 | 0.10 | 0.10 | 2.97 | 91 | 1007.3 |
| 20260506175053 | 12 | 199 | 1.6 | 8.0 | 0.08 | 0.08 | 2.95 | 89 | 1007.0 |
| 20260506174556 | 13 | 331 | 3.2 | 8.0 | 0.05 | 0.05 | 2.95 | 85 | 1007.0 |
| 20260506174057 | 13 | 158 | 1.6 | 6.4 | 0.00 | 0.00 | 2.87 | 82 | 1007.1 |
| 20260506173555 | 13 | 17 | 1.6 | 4.8 | 0.00 | 0.00 | 2.87 | 84 | 1007.1 |
| 20260506173053 | 13 | 233 | 0.0 | 6.4 | 0.00 | 0.00 | 2.87 | 82 | 1006.9 |
| 20260506172827 | 13 | 289 | 3.2 | 8.0 | 0.00 | 0.00 | 2.87 | 81 | 1006.9 |
| 20260506172310 | 13 | 145 | 3.2 | 8.0 | 0.00 | 0.00 | 2.87 | 79 | 1006.9 |
| 20260506171555 | 13 | 20 | 3.2 | 11.3 | 0.00 | 0.00 | 2.87 | 79 | 1006.8 |
| 20260506171320 | 13 | 180 | 1.6 | 11.3 | 0.00 | 0.00 | 2.87 | 78 | 1006.6 |
| 20260506170823 | 13 | 263 | 1.6 | 11.3 | 0.00 | 0.00 | 2.87 | 76 | 1006.5 |
| 20260506170053 | 14 | 251 | 3.2 | 11.3 | 0.00 | 0.00 | 2.87 | 77 | 1006.4 |
| 20260506165817 | 14 | 249 | 3.2 | 11.3 | 0.00 | 0.00 | 2.87 | 76 | 1006.3 |
| 20260506165320 | 14 | 138 | 6.4 | 11.3 | 0.00 | 0.00 | 2.87 | 77 | 1006.3 |
| 20260506164557 | 14 | 325 | 6.4 | 11.3 | 0.00 | 0.00 | 2.87 | 76 | 1006.3 |
| 20260506164053 | 14 | 244 | 4.8 | 9.7 | 0.00 | 0.00 | 2.87 | 76 | 1006.3 |
| 20260506164044 | 14 | 253 | 3.2 | 12.9 | 0.00 | 0.00 | 2.87 | 76 | 1006.0 |
| 20260506163054 | 14 | 307 | 6.4 | 12.9 | 0.00 | 0.00 | 2.87 | 75 | 1006.2 |
| 20260506162818 | 14 | 25 | 3.2 | 14.5 | 0.00 | 0.00 | 2.87 | 76 | 1006.3 |
| 20260506162054 | 13 | 20 | 3.2 | 14.5 | 0.00 | 0.00 | 2.87 | 76 | 1006.2 |
| 20260506161820 | 14 | 200 | 3.2 | 11.3 | 0.00 | 0.00 | 2.87 | 78 | 1006.1 |
| 20260506161052 | 14 | 78 | 9.7 | 17.7 | 0.00 | 0.00 | 2.87 | 77 | 1006.1 |
| 20260506161043 | 13 | 249 | 4.8 | 17.7 | 0.00 | 0.00 | 2.87 | 77 | 1006.0 |
| 20260506160053 | 13 | 258 | 3.2 | 12.9 | 0.00 | 0.00 | 2.87 | 78 | 1006.0 |
| 20260506155555 | 13 | 247 | 3.2 | 12.9 | 0.00 | 0.00 | 2.87 | 79 | 1006.0 |
| 20260506155053 | 13 | 348 | 3.2 | 17.7 | 0.00 | 0.00 | 2.87 | 79 | 1006.1 |
| 20260506154559 | 13 | 177 | 6.4 | 17.7 | 0.00 | 0.00 | 2.87 | 80 | 1006.1 |
| 20260506154056 | 13 | 202 | 4.8 | 17.7 | 0.00 | 0.00 | 2.87 | 78 | 1006.3 |
| 20260506154018 | 13 | 299 | 8.0 | 16.1 | 0.00 | 0.00 | 2.87 | 78 | 1005.9 |
| 20260506153555 | 13 | 346 | 4.8 | 12.9 | 0.00 | 0.00 | 2.87 | 79 | 1006.1 |
| 20260506152553 | 13 | 314 | 6.4 | 19.3 | 0.00 | 0.00 | 2.87 | 79 | 1006.1 |
| 20260506152053 | 13 | 77 | 6.4 | 19.3 | 0.00 | 0.00 | 2.87 | 78 | 1006.1 |
| 20260506151553 | 13 | 228 | 4.8 | 16.1 | 0.00 | 0.00 | 2.87 | 74 | 1007.1 |
| 20260506151057 | 14 | 147 | 3.2 | 19.3 | 0.00 | 0.00 | 2.87 | 73 | 1007.2 |
| 20260506150554 | 14 | 174 | 3.2 | 19.3 | 0.00 | 0.00 | 2.87 | 73 | 1007.2 |
| 20260506150051 | 14 | 10 | 6.4 | 12.9 | 0.00 | 0.00 | 2.87 | 73 | 1007.2 |
| 20260506145552 | 14 | 327 | 1.6 | 17.7 | 0.00 | 0.00 | 2.87 | 73 | 1007.2 |
| 20260506145545 | 14 | 219 | 1.6 | 17.7 | 0.00 | 0.00 | 2.87 | 73 | 1007.2 |
| 20260506144519 | 15 | 61 | 1.6 | 0.0 | 0.00 | 0.00 | 2.87 | 72 | 1007.2 |
| 20260506144129 | 15 | 57 | 1.6 | 9.7 | 0.00 | 0.00 | 2.87 | 73 | 1007.2 |
| 20260506143629 | 14 | 150 | 1.6 | 14.5 | 0.00 | 0.00 | 2.87 | 75 | 1007.3 |
| 20260506143128 | 14 | 314 | 1.6 | 14.5 | 0.00 | 0.00 | 2.87 | 76 | 1007.3 |
| 20260506142629 | 14 | 236 | 1.6 | 12.9 | 0.00 | 0.00 | 2.87 | 75 | 1007.2 |
| 20260506142352 | 14 | 261 | 0.0 | 16.1 | 0.00 | 0.00 | 2.87 | 75 | 1007.2 |
| 20260506141629 | 14 | 133 | 0.0 | 16.1 | 0.00 | 0.00 | 2.87 | 76 | 1007.1 |
| 20260506141128 | 14 | 191 | 1.6 | 11.3 | 0.00 | 0.00 | 2.87 | 76 | 1007.0 |
| 20260506140626 | 14 | 127 | 1.6 | 11.3 | 0.00 | 0.00 | 2.87 | 76 | 1007.1 |
| 20260506140611 | 14 | 277 | 0.0 | 8.0 | 0.00 | 0.00 | 2.87 | 77 | 1007.2 |
| 20260506135626 | 14 | 320 | 1.6 | 14.5 | 0.00 | 0.00 | 2.87 | 78 | 1007.1 |
| 20260506135618 | 14 | 297 | 1.6 | 14.5 | 0.00 | 0.00 | 2.87 | 79 | 1007.2 |
| 20260506134627 | 14 | 289 | 1.6 | 9.7 | 0.00 | 0.00 | 2.87 | 80 | 1007.3 |
| 20260506134349 | 13 | 328 | 1.6 | 9.7 | 0.00 | 0.00 | 2.87 | 79 | 1007.4 |
| 20260506133709 | 13 | 39 | 1.6 | 0.0 | 0.00 | 0.00 | 2.87 | 78 | 1007.5 |
| 20260506133443 | 14 | 39 | 1.6 | 0.0 | 0.00 | 0.00 | 2.87 | 78 | 1007.5 |
| 20260506133224 | 14 | 39 | 1.6 | 0.0 | 0.00 | 0.00 | 2.87 | 78 | 1007.5 |
| 20260506132817 | 14 | 311 | 1.6 | 11.3 | 0.00 | 2.87 | 2.87 | 80 | 1007.6 |
| 20260506132320 | 14 | 41 | 1.6 | 11.3 | 0.00 | 2.87 | 2.87 | 80 | 1007.5 |
| 20260506131545 | 13 | 328 | 0.0 | 6.4 | 0.00 | 2.87 | 2.87 | 85 | 1007.6 |
| 20260506131041 | 13 | 352 | 0.0 | 6.4 | 0.00 | 2.87 | 2.87 | 86 | 1007.6 |
| 20260506130319 | 13 | 328 | 0.0 | 4.8 | 0.00 | 2.87 | 2.87 | 87 | 1007.5 |
| 20260506130045 | 12 | 234 | 0.0 | 4.8 | 0.00 | 2.87 | 2.87 | 88 | 1007.5 |
| 20260506125319 | 12 | 168 | 0.0 | 0.0 | 0.03 | 2.87 | 2.87 | 89 | 1007.5 |
| 20260506124819 | 12 | 33 | 0.0 | 4.8 | 0.05 | 2.87 | 2.87 | 91 | 1007.4 |